Back to catalog

STARLINK-5945

AliveCommunicationsVLEO
NORAD 56018·PAYLOAD·🇺🇸 United States

Launched Mar 24, 2023 from Cape Canaveral Space Force Station

Loading…

Next Passes (next 24 hours)

TLE

FreshSource: CelesTrak SupGP

Epoch: Sep 14, 2026, 22:30 UTC

1 56018C 23042AJ  26257.93798611  .00050463  00000+0  18276-2 0  2577
2 56018  43.0013  56.7134 0001701 270.1716 156.2043 15.27555247    17

Track STARLINK-5945 in real time with AllMySat

Download on the App Store